Flag for U.S.A. Weather past 2 weeks in Midland, Texas, U.S.A.

Now
64 °F

Sunny.


Feels Like: 64 °F
Forecast: 38 / 69 °F
Wind: 7 mph from Southwest

Location: Midland - Midland Airpark

Current Time: Jan 26, 2015 at 1:25:42 PM

Latest Report: Jan 26, 2015 at 12:55 PM


Visibility: 10 mi

Pressure: 30.28 "Hg

Humidity: 29%

Dew point: 31 °F

Location of MidlandLocation

Historic Weather in Midland — Graph

°F

Midland temperature yesterday

Maximum temperature yesterday: 63 °F (at 2:55 PM)
Minimum temperature yesterday: 37 °F (at 6:15 AM)
Average temperature yesterday: 49 °F

Past Weeks' High & Low Weather Summary

 TemperatureHumidityPressure
High74 °F (Jan 19, 5:15 PM)100% (Jan 12, 6:35 AM)30.46 "Hg (Jan 12, 6:35 AM)
Low28 °F (Jan 13, 8:15 AM)13% (Jan 19, 4:15 PM)29.94 "Hg (Jan 20, 5:15 AM)
Average44 °F66%30.22 "Hg
* Reported Jan 11 12:15 PM — Jan 26 12:15 PM, Midland, Weather by CustomWeather, © 2014

Note: Actual official high and low records may vary slightly from our data, if they occured in-between our weather recording intervals... More about our weather records

Advertising

Midland weather history for previous 24 hours

 ConditionsComfort  
Time TempWeatherWind HumidityBarometerVisibility
12:15 PM
Jan 26
64 °FSunny.8 mph31%30.32 "Hg10 mi
11:55 AM63 °FSunny.10 mph31%30.32 "Hg10 mi
11:35 AM60 °FSunny.7 mph34%30.32 "Hg10 mi
11:15 AM57 °FSunny.5 mph41%30.33 "Hg10 mi
10:55 AM55 °FSunny.5 mph45%30.32 "Hg10 mi
10:15 AM50 °FSunny.5 mph51%30.32 "Hg10 mi
9:55 AM49 °FSunny.5 mph55%30.31 "Hg10 mi
9:35 AM46 °FSunny.5 mph60%30.31 "Hg10 mi
9:15 AM43 °FSunny.5 mph66%30.31 "Hg10 mi
8:55 AM41 °FSunny.5 mph70%30.31 "Hg10 mi
8:15 AM38 °FSunny.6 mph73%30.30 "Hg10 mi
7:55 AM38 °FSunny.5 mph74%30.30 "Hg10 mi
7:15 AM37 °FClear.3 mph75%30.29 "Hg10 mi
6:55 AM36 °FClear.3 mph77%30.29 "Hg10 mi
6:35 AM38 °FClear.5 mph73%30.29 "Hg10 mi
6:15 AM39 °FClear.No wind70%30.28 "Hg10 mi
5:55 AM39 °FClear.6 mph71%30.28 "Hg10 mi
5:35 AM38 °FClear.6 mph72%30.28 "Hg10 mi
5:15 AM39 °FClear.5 mph70%30.28 "Hg10 mi
4:55 AM38 °FClear.6 mph74%30.27 "Hg10 mi
4:35 AM38 °FClear.6 mph74%30.27 "Hg10 mi
4:15 AM38 °FClear.8 mph75%30.28 "Hg10 mi
3:55 AM38 °FClear.5 mph73%30.28 "Hg10 mi
3:35 AM39 °FClear.5 mph70%30.28 "Hg10 mi
3:15 AM40 °FClear.5 mph70%30.28 "Hg10 mi
2:55 AM39 °FClear.6 mph71%30.28 "Hg10 mi
2:35 AM39 °FClear.6 mph71%30.28 "Hg10 mi
2:15 AM40 °FClear.3 mph68%30.28 "Hg10 mi
1:55 AM40 °FClear.3 mph69%30.27 "Hg10 mi
1:15 AM40 °FClear.3 mph69%30.28 "Hg10 mi
12:55 AM40 °FClear.3 mph72%30.28 "Hg10 mi
12:35 AM41 °FClear.3 mph67%30.29 "Hg10 mi
12:15 AM41 °FClear.3 mph67%30.29 "Hg10 mi
11:55 PM
Jan 25
43 °FClear.6 mph62%30.29 "Hg10 mi
11:35 PM44 °FClear.3 mph60%30.29 "Hg10 mi
11:15 PM45 °FClear.6 mph56%30.29 "Hg10 mi
10:55 PM44 °FClear.6 mph60%30.28 "Hg10 mi
10:35 PM45 °FClear.6 mph59%30.28 "Hg10 mi
10:15 PM46 °FClear.5 mph56%30.29 "Hg10 mi
9:55 PM47 °FClear.3 mph55%30.28 "Hg10 mi
9:15 PM47 °FClear.3 mph56%30.28 "Hg10 mi
8:55 PM50 °FClear.5 mph46%30.29 "Hg10 mi
8:35 PM51 °FClear.3 mph44%30.28 "Hg10 mi
8:15 PM51 °FClear.3 mph47%30.28 "Hg10 mi
7:55 PM51 °FClear.3 mph46%30.27 "Hg10 mi
7:35 PM52 °FClear.No wind44%30.26 "Hg10 mi
7:15 PM52 °FClear.No wind46%30.25 "Hg10 mi
6:55 PM56 °FClear.No wind34%30.24 "Hg10 mi
6:15 PM59 °FClear.No wind29%30.24 "Hg10 mi
5:55 PM60 °FSunny.No wind29%30.24 "Hg10 mi
5:15 PM62 °FSunny.6 mph27%30.24 "Hg10 mi
4:55 PM62 °FSunny.6 mph26%30.23 "Hg10 mi
4:15 PM62 °FSunny.5 mph25%30.24 "Hg10 mi
3:15 PM62 °FSunny.5 mph24%30.23 "Hg10 mi
2:55 PM63 °FSunny.9 mph24%30.23 "Hg10 mi
2:35 PM63 °FSunny.7 mph24%30.23 "Hg10 mi
2:15 PM62 °FSunny.6 mph24%30.22 "Hg10 mi
1:55 PM62 °FSunny.10 mph23%30.22 "Hg10 mi
1:15 PM60 °FSunny.8 mph24%30.25 "Hg10 mi
Weather by CustomWeather, © 2014

See weather overviewHow to use our weather pages